Location: Peterborough
(44.3091°N, 78.3197°W)
Time: 19:34:50
(UTC-04:00)

A-11 Canister half - Pass Details

Date: 26 March 2023
Orbit: 1526 x 1682 km, 47.3° (Epoch: 06 June)

Event Time Altitude Azimuth Distance (km) Brightness Sun altitude
Rises 00:47:58 0° 293° (WNW) 4,809 11.9 -43.1°
Reaches altitude 10° 00:51:43 10° 282° (WNW) 3,795 11.2 -43.2°
Enters shadow 00:54:20 18° 269° (W) 3,205 10.7 -43.3°
